Hauptseite
METAR-TAF:

METAR-TAF

Flughäfen :

Capo Mele

Andora, Italien

Breite: 43-57N, Länge: 008-10E, Höhe: 220 m

Beobachtung

Neuester Wetterbericht von vor 1 Stunde und 15 Minuten, um 01:55 UTC
Wind 8 kt aus Nordost
Temperatur 20°C
Luftfeuchtigkeit 46%
Luftdruck 1018 hPa
Sichtweite 10 km oder mehr
keine Wolken unter 1500 m und keine Kumulonimbus oder Gewitterwolken

METAR: LIMU 160155Z 04008KT CAVOK 20/08 Q1018 RMK OVC SCT070 SCT090 QUK / QUL / VIS MAR 20 KM VIS MIN 9999

Zeit: 05:10 (03:10 UTC)


TAF: fehlend

Wetterbeobachtungen und Prognosen von mehr als 4000 Flughäfen (METAR und TAF Bericht).

Die verfügbaren Stationen werden durch gelbe und rote Markierungen auf der Karte dargestellt.

Führen Sie die Maus auf sie, um den Namen der Station zu sehen.

Darauf klicken, um die Beobachtung von Wetterbeobachtungen und Prognosen zu sehen.

Um die Karte zu ändern : klicken Sie auf den grünen Tasten mit einem schwarzen Kreuz Zum Vergrößern, auf den grünen Button mit einem Gedankenstrich zu verkleinern, oder auf die grünen Pfeile für benachbarte Karten.


METAR-TAF: